Weather in Koforidua

Ghana     6°05′44″N   0°15′28″E
temp.,
°C
wind,
m/s
gust,
m/s
humid.,
%
clouds,
%
prec.,
mm/h
press.,
hPa
HPBL,
m
6 may, thu
thu600:00+24wsw3890100 0.0 1012436
03:00+24wsw2891100 0.0 1011435
06:00+24wsw1493100 0.0 1012164
09:00+29sw466358 0.0 1012867
12:00+34sw434510 0.0 10101839
15:00+32ssw464963 0.3 1008812
18:00+24ssw378795 10.8 1010328
21:00+22wsw269191 0.0 1013197
7 may, fri
fri700:00+22w129458 0.0 101460
03:00+23wsw129897 0.0 101395
06:00+23wsw2798100 0.1 1013335
09:00+26sw367998 0.0 1015824
12:00+32wsw3450100 0.1 10121606
15:00+32ssw455296 0.1 10101175
18:00+28sw486998 0.2 1011329
21:00+26ssw488196 0.2 1013553
8 may, sat
sat800:00+24sw269472 1.9 1014189
03:00+23sw129799 0.0 101354
06:00+23w1297100 0.0 101460
09:00+27w2376100 0.1 1016695
12:00+30w2262100 1.9 10141197
15:00+29sw4563100 0.4 10111013
18:00+27sw4872100 0.4 1012628
21:00+24sw3985100 0.0 1014572
9 may, sun
sun900:00+23wsw2795100 0.1 1014373
03:00+23w119898 0.0 101338
06:00+22wnw1198100 0.0 101448
09:00+27wnw1176100 0.0 1015541
12:00+30sse1256100 0.0 10131295
15:00+31ne2256100 1.7 10101067
18:00+23ese4894100 4.8 1013371
21:00+23wsw2795100 0.3 1012334
10 may, mon
mon1000:00+23wnw1194100 0.3 101219
03:00+22nw1194100 0.0 101216
06:00+22wnw119454 0.0 101315
09:00+28ssw1270100 0.0 1014638
12:00+32s2253100 0.0 10121665
15:00+29ssw346676 0.9 1010829
18:00+26s377526 1.4 1012251
21:00+24ssw26866 0.0 1013188